User: anonymous   Login
Location: Unspecified
(0.0000°N, 0.0000°E)
Time: 19:01:59
(UTC+00:00)
Language:

STARLINK-32814 - Orbit

View from above orbital plane
View from above orbital plane
View from above satellite
View from above satellite

Ground track
Ground track

The orbit is defined by the following mean orbital elements,

1 62871U          26145.39840899 +.00000000 +00000-0 +52700-3 0 00002
2 62871  53.1569 133.3791 0001173  92.9282 267.1853 15.30210826    06
Epoch (UTC): 25 May 2026 09:33:42
Eccentricity: 0.0001173
inclination: 53.1569°
perigee height: 474 km
apogee height: 476 km
right ascension of ascending node: 133.3791°
argument of perigee: 92.9282°
revolutions per day: 15.30210826
mean anomaly at epoch: 267.1853°

The dashed part of the orbit path shows where the satellite is in the earth's shadow,  

DLR